Погода в Пуэрто-Кабельо

Венесуэла     10°28′17″N   68°01′09″W
В апреле 2022 года жителям России запретили посещать сайт meteo.paraplan.net по решению Генеральной прокуратуры. Аудитория сайта уменьшилась в 10 раз. Владельцы сайта не видят смысла в поддержке погодного сервера в таких условиях. Сайт будет закрыт в октябре.
темп.,
°C
ветер,
м/с
пор.,
м/с
влажн.,
%
обл.,
%
осадки,
мм/ч
давл.,
гПа
погр.,
м
3 октября, пн
пн323:00+28юв33692 0.0 1014199
02:00+27ююз22695 0.1 1012175
05:00+27ю226923 0.1 1012153
08:00+27ююв12655 0.1 1013225
11:00+28ссв43715 0.0 1013206
14:00+27св76775 0.0 1010426
17:00+28всв777882 0.4 1009491
20:00+28в567797 1.6 1010291
4 октября, вт
вт423:00+28юв23735 0.8 1011198
02:00+27юз33735 1.1 1010234
05:00+27юз22716 0.4 1010290
08:00+27юв116811 0.4 1012315
11:00+26с32835 0.1 1012188
14:00+26всв338462 0.5 1009291
17:00+27всв448317 0.1 1008344
20:00+27всв4579100 0.3 1010522
5 октября, ср
ср523:00+28в5579100 0.2 1011639
02:00+27в347899 0.8 1009642
05:00+27вюв1277100 0.8 1008583
08:00+27зюз1178100 1.3 1010511
11:00+27с2280100 0.1 1011343
14:00+27всв348098 1.6 1009339
17:00+27св4478100 0.5 1008438
20:00+28всв5677100 0.9 1009707
6 октября, чт
чт623:00+28в4579100 1.0 1010629
02:00+27в4580100 2.9 1009584
05:00+27в3579100 2.8 1009601
08:00+26в348098 6.3 1011465
11:00+27всв348196 1.7 1011389
14:00+28св557991 4.8 1009592
17:00+27в3478100 1.3 1008519
20:00+27всв2376100 2.1 1010579
7 октября, пт
пт723:00+27всв237881 0.9 1011545
02:00+26зюз118159 1.3 1010338
05:00+26зсз2286100 0.6 1010409
08:00+26з2282100 0.9 1011325
11:00+27ссз328073 0.6 1012267
14:00+29ссз216982 1.7 1009156
17:00+28ю7872100 2.4 1008449
20:00+27з1174100 3.8 1010232